Location: Newark
(41.6500°N, 71.4833°W)
Time: 11:21:13
(UTC+00:00)

deb Explorer IX - Pass Details

Date: 02 February 2020
Orbit: 549 x 1099 km, 38.8° (Epoch: 25 February)

Event Time Altitude Azimuth Distance (km) Brightness Sun altitude
Rises 21:28:33 0° 200° (SSW) 3,111 ? 4.9°
Reaches altitude 10° 21:31:40 10° 179° (S) 2,304 ? 4.4°
Maximum altitude 21:35:02 17° 141° (SE) 1,996 ? 3.8°
Drops below altitude 10° 21:38:42 10° 104° (ESE) 2,552 ? 3.2°
Sets 21:42:24 0° 85° (E) 3,615 ? 2.6°
